Location: Seattle
(47.6064°N, 122.3308°W)
Time: 06:25:40
(UTC-08:00)

BlueWalker 3 - Visible Passes

Search period start: 01 December 2022 00:00
Search period end: 11 December 2022 00:00
Orbit: 500 x 519 km, 53.2° (Epoch: 01 December)

Date Brightness Start Highest point End Pass type
(mag) Time Alt. Az. Time Alt. Az. Time Alt. Az.
01 Dec 2.9 17:48:27 10° WNW 17:52:07 36° N 17:53:45 25° NE visible
01 Dec 4.6 19:27:35 10° WNW 19:28:34 17° NW 19:28:34 17° NW visible
02 Dec 2.9 17:30:06 10° WNW 17:33:45 36° N 17:36:06 19° NE visible
02 Dec 4.0 19:09:13 10° WNW 19:10:55 23° NW 19:10:55 23° NW visible
03 Dec 2.9 17:11:45 10° WNW 17:15:24 36° N 17:18:28 13° ENE visible
03 Dec 3.3 18:50:50 10° WNW 18:53:17 32° NW 18:53:17 32° NW visible
04 Dec 2.9 16:53:23 10° WNW 16:57:01 35° N 17:00:39 10° ENE visible
04 Dec 2.6 18:32:26 10° WNW 18:35:42 44° NNW 18:35:42 44° NNW visible
05 Dec 2.2 18:14:02 10° WNW 18:17:52 50° NNE 18:18:09 49° NE visible
05 Dec 5.3 19:52:48 10° WNW 19:52:59 11° WNW 19:52:59 11° WNW visible
06 Dec 2.2 17:55:38 10° WNW 17:59:28 51° NNE 18:00:42 36° ENE visible
06 Dec 4.7 19:34:25 10° WNW 19:35:32 18° WNW 19:35:32 18° WNW visible
07 Dec 2.2 17:37:13 10° WNW 17:41:04 53° NNE 17:43:19 22° E visible
07 Dec 4.0 19:16:02 10° WNW 19:18:10 27° W 19:18:10 27° W visible
08 Dec 2.1 17:18:49 10° WNW 17:22:40 55° NNE 17:26:07 12° E visible
08 Dec 3.3 18:57:38 10° WNW 19:00:58 37° SW 19:00:58 37° SW visible
09 Dec 2.1 17:00:23 10° WNW 17:04:16 57° NNE 17:08:06 10° E visible
09 Dec 3.3 18:39:14 10° WNW 18:42:50 36° SW 18:43:57 29° S visible
10 Dec 3.5 18:20:50 10° WNW 18:24:23 34° SW 18:27:13 14° SSE visible
